Flag for South Africa Weather past 2 weeks in Bloemfontein, South Africa

Now
70 °F

Mild.


Feels Like: 70 °F
Forecast: 60 / 82 °F
Wind: 7 mph from North

Location: Bloemfontein Airport

Current Time: Aug 30, 2015 at 11:08:52 PM

Latest Report: Aug 30, 2015 at 10:00 PM


Visibility: N/A

Pressure: 30.09 "Hg (25.58 "Hg at 1397m altitude)

Humidity: 25%

Dew point: 32 °F

Location of BloemfonteinLocation

Historic Weather in Bloemfontein — Graph

°F

Bloemfontein temperature yesterday

Maximum temperature yesterday: 84 °F (at 1:00 PM)
Minimum temperature yesterday: 45 °F (at 6:00 AM)
Average temperature yesterday: 65 °F

Past Weeks' High & Low Weather Summary

 TemperatureHumidityPressure
High84 °F (Aug 28, 2:00 PM)82% (Aug 27, 4:00 AM)30.42 "Hg (Aug 27, 4:00 AM)
Low34 °F (Aug 21, 6:00 AM)11% (Aug 18, 5:00 PM)30.01 "Hg (Aug 19, 6:00 PM)
Average62 °F39%30.22 "Hg
* Reported Aug 15 9:00 PM — Aug 30 9:00 PM, Bloemfontein, Weather by CustomWeather, © 2015

Note: Actual official high and low records may vary slightly from our data, if they occured in-between our weather recording intervals... More about our weather records

Advertising

Bloemfontein weather history for previous 24 hours

 ConditionsComfort  
Time TempWeatherWind HumidityBarometerVisibility
9:00 PM
Sun, Aug 30
68 °FMild.8 mph26%30.09 "HgN/A
8:00 PM72 °FClear.8 mph23%30.09 "Hg10 mi
7:00 PM72 °FClear.5 mph22%30.07 "Hg10 mi
6:00 PM77 °FClear.6 mph18%30.07 "Hg10 mi
5:00 PM81 °FClear.9 mph15%30.07 "Hg10 mi
4:00 PM82 °FSunny.14 mph14%30.07 "Hg10 mi
3:00 PM81 °FPassing clouds.5 mph17%30.09 "HgN/A
2:00 PM81 °FPassing clouds.8 mph18%30.12 "HgN/A
1:00 PM81 °FSunny.18 mph17%30.15 "Hg10 mi
12:00 PM77 °FSunny.10 mph22%30.18 "Hg10 mi
11:00 AM70 °FSunny.8 mph29%30.21 "Hg10 mi
10:00 AM66 °FSunny.9 mph32%30.24 "Hg10 mi
9:00 AM61 °FPassing clouds.6 mph45%30.24 "HgN/A
8:00 AM57 °FLight rain. Passing clouds.3 mph48%30.24 "HgN/A
7:00 AM59 °FSunny.2 mph39%30.18 "Hg10 mi
6:00 AM59 °FPassing clouds.3 mph39%30.18 "HgN/A
5:00 AM61 °FRefreshingly cool.2 mph31%30.18 "HgN/A
4:00 AM61 °FRefreshingly cool.5 mph34%30.15 "HgN/A
3:00 AM61 °FRefreshingly cool.5 mph34%30.18 "HgN/A
2:00 AM61 °FRefreshingly cool.5 mph31%30.21 "HgN/A
1:00 AM68 °FMild.12 mph26%30.21 "HgN/A
12:00 AM64 °FMild.2 mph32%30.21 "HgN/A
11:00 PM
Sat, Aug 29
63 °FMild.1 mph32%30.21 "HgN/A
Weather by CustomWeather, © 2015

See weather overviewHow to use our weather pages